Home   Weather   Tábor   Past weeks

Flag for Czech Republic Past Weather in Tábor, Czech Republic — Yesterday and Last 2 Weeks

Now
26 °F

Fog.


Feels Like: 26 °F
Forecast: 17 / 29 °F
Wind: 2 mph from East

Location: Kocelovice

Current Time: Dec 4, 2016 at 7:39:52 pm

Latest Report: Dec 4, 2016 at 7:00 pm


Visibility: 4 mi

Pressure: 30.50 "Hg

Humidity: 94%

Dew Point: 24 °F

Location of TáborLocation

Past Weather in Tábor — Graph

°F

Tábor Temperature Yesterday

Maximum temperature yesterday: 34 °F (at 2:00 pm)
Minimum temperature yesterday: 22 °F (at 8:00 am)
Average temperature yesterday: 27 °F

High & Low Weather Summary for the Past Weeks

 TemperatureHumidityPressure
High47 °F (Nov 22, 3:00 pm)100% (Nov 20, 12:00 am)30.62 "Hg (Nov 20, 12:00 am)
Low19 °F (Dec 4, 8:00 am)53% (Nov 30, 11:00 am)29.82 "Hg (Nov 20, 2:00 pm)
Average35 °F91%30.18 "Hg
* Reported Nov 19 6:00 pm — Dec 4 6:00 pm, Tábor, Weather by CustomWeather, © 2016

Note: Actual official high and low records may vary slightly from our data, if they occured in-between our weather recording intervals... More about our weather records

Advertising

Tábor Weather History for the Previous 24 Hours

Scroll right to see more
 ConditionsComfort  
Time TempWeatherWind HumidityBarometerVisibility
6:00 pm
Sun, Dec 4
26 °FPassing clouds.2 mph92%30.48 "Hg7 mi
5:00 pm27 °FPassing clouds.2 mph90%30.48 "Hg9 mi
4:00 pm29 °FPartly sunny.2 mph88%30.46 "Hg11 mi
3:00 pm30 °FPartly sunny.2 mph81%30.45 "Hg11 mi
2:00 pm30 °FPartly sunny.2 mph84%30.45 "Hg7 mi
1:00 pm29 °FFog.2 mph89%30.46 "Hg2 mi
12:00 pm28 °FFog.N/A94%30.47 "Hg2 mi
11:00 am25 °FFog.N/A96%30.49 "Hg1 mi
9:00 am20 °FFog.N/A99%30.49 "Hg0 mi
8:00 am19 °FFog.No wind96%30.48 "Hg3 mi
7:00 am19 °FPassing clouds.No wind95%30.46 "Hg9 mi
6:00 am19 °FCold.2 mph95%30.45 "Hg10 mi
5:00 am19 °FCold.1 mph94%30.45 "Hg10 mi
4:00 am20 °FCold.1 mph95%30.45 "Hg8 mi
3:00 am21 °FCold.1 mph97%30.44 "Hg8 mi
2:00 am23 °FCold.1 mph96%30.44 "Hg8 mi
1:00 am22 °FCold.N/A95%30.44 "Hg6 mi
12:00 am22 °FCold.1 mph96%30.43 "Hg6 mi
11:00 pm
Sat, Dec 3
23 °FCold.1 mph95%30.42 "Hg7 mi
10:00 pm25 °FCold.N/A94%30.41 "Hg7 mi
9:00 pm25 °FPassing clouds.3 mph95%30.40 "Hg9 mi
8:00 pm27 °FPassing clouds.2 mph91%30.39 "Hg12 mi
7:00 pm27 °FPassing clouds.1 mph91%30.37 "Hg40 mi
Weather by CustomWeather, © 2016

See weather overviewHow to use our weather pages